weather.gov     
National Weather Service

Regional Weather Roundup
NWS Homepage
This page is being discontinued on March 12, 2014.
The same data is available at this site. Please update your bookmarks.
Thank you, and we apologize for the inconvenience.
Please send an email to SR-SRH.Webmaster@noaa.gov with any concerns.


Current Version
Previous Version:    01  02  03  04  05  06  07  08  09  10  11  12  13  14  15  16  17  18  19  20  21  22  23  24  25  26  27  28  29  30  
[Printable]
437
ASUS45 KGGW 190315
RWRGGW
HOURLY WEATHER ROUNDUP FOR NORTHEAST MONTANA
NATIONAL WEATHER SERVICE GLASGOW MONTANA
900 PM MDT THU SEP 18 2014

NOTE: "FAIR" INDICATES FEW OR NO CLOUDS BELOW 12,000 FEET WITH NO
SIGNIFICANT WEATHER AND/OR OBSTRUCTIONS TO VISISBILITY.

NORTHEAST MONTANA


CITY           SKY/WX    TMP DP  RH WIND       PRES   REMARKS
GLASGOW        MOCLDY    69  52  54 SW5       29.62R
PLENTYWOOD       N/A     66  50  56 SW3         N/A
WOLF POINT     CLOUDY    62  55  77 CALM      29.60R
JORDAN           N/A     64  56  75 CALM      29.67R
WINNETT          N/A     65  55  70 CALM        N/A
SIDNEY         CLOUDY    63  54  72 CALM      29.64R
GLENDIVE       CLOUDY    70  55  60 SW12      29.69R
MALTA            N/A     63  50  62 S7          N/A
OPHEIM           N/A     61  50  67 SW5       29.42R

FORT PECK REPORTS


CITY           SKY/WX    TMP DP  RH WIND       PRES   REMARKS
FORT PECK        N/A     69  58  67 S9          N/A
THE PINES        N/A     69  51  52 SW3         N/A

SOUTHEAST MONTANA


CITY           SKY/WX    TMP DP  RH WIND       PRES   REMARKS
BILLINGS       CLOUDY    64  54  69 W9        29.79S
MILES CITY     CLOUDY    71  53  52 S13       29.73R
BAKER          CLOUDY    70  50  49 SW12      29.75R
LIVINGSTON     PTCLDY    66  49  54 W20G30    29.85R

CENTRAL MONTANA


CITY           SKY/WX    TMP DP  RH WIND       PRES   REMARKS
HAVRE          PTCLDY    64  51  62 SW12      29.62R
LEWISTOWN      MOCLDY    64  50  60 SW13      29.77R
GREAT FALLS    CLEAR     60  44  55 W9        29.74R
CUT BANK       PTCLDY    60  40  47 W10       29.74R
HELENA         MOCLDY    66  55  67 SW7       29.78R
BUTTE          MOCLDY    58  43  57 N5        29.92R
BOZEMAN        MOCLDY    57  53  86 SE12      29.85R

WESTERN MONTANA


CITY           SKY/WX    TMP DP  RH WIND       PRES   REMARKS
MISSOULA       MOCLDY    70  42  36 NW14      29.83R
KALISPELL      NOT AVBL

NORTH DAKOTA


CITY           SKY/WX    TMP DP  RH WIND       PRES   REMARKS
WILLISTON      CLOUDY    66  53  63 E3        29.59S
DICKINSON      CLOUDY    66  60  81 S9        29.66F
MINOT          CLOUDY    73  60  63 S6        29.57R
BISMARCK       CLOUDY    72  62  71 S8        29.69R

SOUTHERN SASKATCHEWAN


CITY           SKY/WX    TMP DP  RH WIND       PRES   REMARKS
REGINA         PTCLDY    64  55  72 SW5       29.50R
ESTEVAN        MOCLDY    59  54  82 SW7       29.55S
SWIFT CURRENT  CLEAR     59  48  67 SW10      29.55S





U.S. Dept. of Commerce
NOAA National Weather Service
1325 East West Highway
Silver Spring, MD 20910
E-mail: w-nws.webmaster@noaa.gov
Page last modified: May 16, 2007
NATIONAL WEATHER SERVICE: for Safety, for Work, for Fun - FOR LIFE